Weather History for Osceola, WI

Change the Weather History Date:

Wednesday, December 4, 2013

  Actual Average (KMSP) Record (KMSP)
Temperature  
Mean Temperature 26 °F 24 °F  
Max Temperature 32 °F 31 °F 56 °F (1941)
Min Temperature 18 °F 16 °F -15 °F (1886)
Degree Days  
Heating Degree Days 40 41  
Month to date heating degree days 162  
Since 1 July heating degree days 1781  
Cooling Degree Days 0 0  
Month to date cooling degree days 0  
Year to date cooling degree days 753  
Moisture  
Dew Point 28 °F    
Average Humidity 97    
Maximum Humidity 100    
Minimum Humidity 87    
Precipitation  
Precipitation 0.00 in 0.05 in 0.58 in (1877)
Month to date precipitation 0.18  
Year to date precipitation 29.63  
Snow  
Snow 0.00 in 0.40 in 4.20 in (1947)
Month to date snowfall 1.6  
Since 1 July snowfall 11.5  
Snow Depth -    
Sea Level Pressure  
Sea Level Pressure 29.62 in    
Wind  
Wind Speed 8 mph (NNE)    
Max Wind Speed 20 mph    
Max Gust Speed 25 mph    
Visibility 5 miles    
Events Snow    
T = Trace of Precipitation, MM = Missing Value Source: NWS Daily Summary

Daily Weather History Graph

Daily Weather History Graph

Search for Another Location

Airport:

Trip Planner

Search our weather history database for the weather conditions in past years. The results will help you decide how hot, cold, wet, or windy it might be!

Date:

Astronomy

Dec. 04, 2013 Rise Set
Actual Time 7:33 AM CST 4:28 PM CST
Civil Twilight 6:59 AM CST 5:02 PM CST
Nautical Twilight 6:22 AM CST 5:39 PM CST
Astronomical Twilight 5:47 AM CST 6:14 PM CST
Moon 9:00 AM CST (12/4) 6:41 PM CST (12/4)
Length of Visible Light 10h 02m
Length of Day
8h 55m
Waxing Crescent, 4% of the Moon is Illuminated
Dec 4
Waxing Crescent
Dec 9
First Quarter
Dec 17
Full
Dec 25
Last Quarter
Jan 1
New

Hourly Weather History & Observations

Time (CST) Temp. Windchill Dew Point Humidity Pressure Visibility Wind Dir Wind Speed Gust Speed Precip Events Conditions
12:15 AM 30.7 °F 22.6 °F 29.7 °F 96% 29.81 in 10.0 mi ENE 9.2 mph - N/A   Overcast
12:35 AM 30.6 °F 23.8 °F 29.3 °F 95% 29.82 in 10.0 mi ENE 6.9 mph - N/A   Overcast
12:55 AM 30.2 °F 21.9 °F 29.3 °F 96% 29.82 in 10.0 mi ENE 9.2 mph - N/A   Overcast
1:15 AM 30.2 °F 21.3 °F 29.3 °F 96% 29.81 in 10.0 mi ENE 10.4 mph - N/A   Overcast
1:35 AM 30.0 °F 21.7 °F 29.1 °F 96% 29.81 in 10.0 mi ENE 9.2 mph - N/A   Overcast
1:55 AM 29.7 °F 22.0 °F 28.9 °F 97% 29.80 in 10.0 mi ENE 8.1 mph - N/A   Overcast
2:15 AM 29.5 °F 21.1 °F 28.8 °F 97% 29.80 in 10.0 mi ENE 9.2 mph 17.3 mph N/A   Overcast
2:35 AM 29.3 °F 20.2 °F 28.4 °F 96% 29.79 in 10.0 mi ENE 10.4 mph - N/A   Overcast
2:55 AM 29.3 °F 20.8 °F 28.4 °F 96% 29.80 in 10.0 mi ENE 9.2 mph 16.1 mph N/A   Overcast
3:15 AM 29.3 °F 20.8 °F 28.2 °F 96% 29.79 in 2.0 mi ENE 9.2 mph - N/A Snow Light Snow
3:35 AM 28.9 °F 22.8 °F 28.4 °F 98% 29.80 in 0.8 mi ENE 5.8 mph - N/A Snow Snow
3:55 AM 28.8 °F 21.7 °F 28.8 °F 100% 29.79 in 0.8 mi ENE 6.9 mph - N/A Snow Snow
4:15 AM 28.4 °F 19.7 °F 28.4 °F 100% 29.77 in 1.2 mi ENE 9.2 mph - N/A Snow Light Snow
4:35 AM 28.4 °F 21.2 °F 28.2 °F 99% 29.76 in 2.0 mi NE 6.9 mph - N/A Snow Light Snow
4:55 AM 28.8 °F 20.2 °F 27.9 °F 96% 29.75 in 5.0 mi NE 9.2 mph - N/A Snow Light Snow
5:15 AM 28.4 °F 21.2 °F 27.5 °F 96% 29.74 in 4.0 mi ENE 6.9 mph - N/A Snow Light Snow
5:35 AM 28.8 °F 19.5 °F 27.3 °F 94% 29.74 in 5.0 mi ENE 10.4 mph - N/A Snow Light Snow
5:55 AM 28.4 °F 21.2 °F 27.5 °F 96% 29.74 in 1.5 mi East 6.9 mph - N/A Snow Light Snow
6:15 AM 28.4 °F 19.7 °F 27.7 °F 97% 29.73 in 1.2 mi East 9.2 mph - N/A Snow Light Snow
6:35 AM 28.4 °F 21.2 °F 27.7 °F 97% 29.73 in 2.5 mi ENE 6.9 mph - N/A Snow Light Snow
6:55 AM 28.4 °F 21.2 °F 27.5 °F 96% 29.72 in 1.5 mi ENE 6.9 mph - N/A Snow Light Snow
7:15 AM 28.4 °F 21.2 °F 27.9 °F 98% 29.71 in 1.5 mi ENE 6.9 mph - N/A Snow Light Snow
7:35 AM 28.4 °F 22.2 °F 28.0 °F 99% 29.71 in 1.2 mi ENE 5.8 mph - N/A Snow Light Snow
7:55 AM 28.4 °F 22.2 °F 27.9 °F 98% 29.69 in 1.0 mi ENE 5.8 mph - N/A Snow Light Snow
8:15 AM 28.4 °F 22.2 °F 27.9 °F 98% 29.69 in 1.8 mi ENE 5.8 mph - N/A Snow Light Snow
8:35 AM 28.6 °F 20.7 °F 27.9 °F 97% 29.68 in 1.5 mi NE 8.1 mph - N/A Snow Light Snow
8:55 AM 28.8 °F 22.6 °F 27.9 °F 96% 29.68 in 4.0 mi ENE 5.8 mph - N/A Snow Light Snow
9:15 AM 29.1 °F 24.1 °F 28.0 °F 96% 29.68 in 7.0 mi ENE 4.6 mph - N/A Snow Light Snow
9:35 AM 29.3 °F 25.6 °F 28.4 °F 96% 29.69 in 5.0 mi East 3.5 mph - N/A Snow Light Snow
9:55 AM 29.3 °F 24.3 °F 28.9 °F 99% 29.68 in 1.2 mi ENE 4.6 mph - N/A Snow Light Snow
10:15 AM 29.7 °F 24.7 °F 29.5 °F 99% 29.66 in 1.2 mi ENE 4.6 mph - N/A Snow Light Snow
10:35 AM 29.8 °F 23.9 °F 29.8 °F 100% 29.63 in 2.5 mi NE 5.8 mph - N/A Snow Light Snow
10:55 AM 30.9 °F 24.3 °F 30.7 °F 99% 29.61 in 4.0 mi ENE 6.9 mph - N/A Snow Light Snow
11:15 AM 31.3 °F 23.3 °F 31.1 °F 99% 29.57 in 5.0 mi ENE 9.2 mph - N/A Snow Light Snow
11:35 AM 31.8 °F 26.2 °F 31.6 °F 99% 29.56 in 4.0 mi ENE 5.8 mph - N/A   Overcast
11:55 AM 32.0 °F 27.5 °F 31.8 °F 99% 29.55 in 4.0 mi ENE 4.6 mph - N/A   Overcast
12:15 PM 32.0 °F - 32.0 °F 100% 29.56 in 4.0 mi Calm Calm - N/A Snow Light Snow
12:35 PM 32.0 °F - 32.0 °F 100% 29.55 in 1.5 mi Calm Calm - N/A Snow Light Snow
12:55 PM 32.0 °F - 32.0 °F 100% 29.54 in 1.2 mi Calm Calm - N/A Snow Light Snow
1:15 PM 32.0 °F - 32.0 °F 100% 29.52 in 1.5 mi Calm Calm - N/A Snow Light Snow
1:35 PM 32.0 °F - 32.0 °F 100% 29.50 in 1.5 mi Calm Calm - N/A Snow Light Snow
1:55 PM 32.0 °F - 32.0 °F 100% 29.49 in 0.8 mi Calm Calm - N/A Snow Light Snow
2:15 PM 32.0 °F - 32.0 °F 100% 29.48 in 1.0 mi Calm Calm - N/A Snow Light Snow
2:35 PM 32.0 °F - 32.0 °F 100% 29.47 in 1.2 mi Calm Calm - N/A Snow Light Snow
2:55 PM 32.0 °F 28.7 °F 32.0 °F 100% 29.46 in 1.0 mi NNW 3.5 mph - N/A Snow Light Snow
3:15 PM 32.0 °F - 32.0 °F 100% 29.47 in 0.8 mi Calm Calm - N/A Snow Light Snow
3:35 PM 32.0 °F 26.4 °F 32.0 °F 100% 29.47 in 1.0 mi WNW 5.8 mph - N/A Snow Light Snow
3:55 PM 30.7 °F 27.3 °F 30.7 °F 100% 29.47 in 1.0 mi WNW 3.5 mph - N/A Snow Light Snow
4:15 PM 30.2 °F - 30.2 °F 100% 29.47 in 0.8 mi Calm Calm - N/A Snow Light Snow
4:35 PM 30.0 °F 26.5 °F 30.0 °F 100% 29.47 in 1.0 mi West 3.5 mph - N/A Snow Light Snow
4:55 PM 30.0 °F 25.2 °F 30.0 °F 100% 29.47 in 1.0 mi West 4.6 mph - N/A Snow Snow
5:15 PM 29.8 °F 23.0 °F 29.8 °F 100% 29.48 in 1.8 mi West 6.9 mph - N/A Snow Light Snow
5:35 PM 29.7 °F 24.7 °F 29.7 °F 100% 29.48 in 1.8 mi West 4.6 mph - N/A Snow Light Snow
5:55 PM 29.3 °F 21.5 °F 29.3 °F 100% 29.48 in 5.0 mi West 8.1 mph - N/A Snow Light Snow
6:15 PM 29.3 °F 22.3 °F 29.3 °F 100% 29.47 in 7.0 mi WSW 6.9 mph - N/A Snow Light Snow
6:35 PM 29.3 °F 22.3 °F 29.1 °F 99% 29.46 in 10.0 mi West 6.9 mph - N/A   Overcast
6:55 PM 29.1 °F 20.6 °F 28.8 °F 99% 29.47 in 10.0 mi West 9.2 mph - N/A   Overcast
7:15 PM 29.3 °F 19.6 °F 28.8 °F 98% 29.49 in 10.0 mi WSW 11.5 mph - N/A   Overcast
7:35 PM 29.1 °F 18.4 °F 28.4 °F 97% 29.50 in 10.0 mi West 13.8 mph - N/A   Overcast
7:55 PM 27.0 °F 14.7 °F 25.5 °F 94% 29.51 in 10.0 mi West 16.1 mph - N/A   Overcast
8:15 PM 26.1 °F 14.5 °F 24.8 °F 95% 29.53 in 10.0 mi West 13.8 mph - N/A   Overcast
8:35 PM 25.3 °F 12.6 °F 23.5 °F 93% 29.54 in 10.0 mi WSW 16.1 mph - N/A   Overcast
8:55 PM 24.8 °F 14.0 °F 23.0 °F 93% 29.55 in 10.0 mi West 11.5 mph - N/A   Overcast
9:15 PM 24.4 °F 12.4 °F 22.3 °F 91% 29.55 in 10.0 mi West 13.8 mph 21.9 mph N/A   Overcast
9:35 PM 23.9 °F 13.5 °F 21.4 °F 90% 29.56 in 10.0 mi West 10.4 mph 23.0 mph N/A   Overcast
9:55 PM 23.5 °F 10.8 °F 20.8 °F 89% 29.56 in 10.0 mi West 15.0 mph 23.0 mph N/A   Overcast
10:15 PM 23.4 °F 9.2 °F 20.1 °F 87% 29.58 in 10.0 mi West 18.4 mph 25.3 mph N/A   Overcast
10:35 PM 23.0 °F 10.6 °F 20.3 °F 89% 29.58 in 10.0 mi WSW 13.8 mph - N/A   Overcast
10:55 PM 21.9 °F 6.9 °F 19.2 °F 89% 29.60 in 10.0 mi WSW 19.6 mph 23.0 mph N/A   Overcast
11:15 PM 20.7 °F 5.3 °F 17.8 °F 89% 29.61 in 10.0 mi WSW 19.6 mph - N/A   Overcast
11:35 PM 19.4 °F 3.6 °F 16.7 °F 89% 29.63 in 10.0 mi WSW 19.6 mph 25.3 mph N/A   Overcast
11:55 PM 18.3 °F 3.6 °F 15.1 °F 87% 29.64 in 10.0 mi WSW 16.1 mph - N/A   Overcast